Terminal Aerodrome Forecast
Issued by NWS Jackson, KY

Home | Current Version | Previous Version | Text Only | Print | Product List | Glossary On
Versions: 1 2 3 4 5 6 7 8 9 10 11 12 13 14 15 16 17 18 19
681
FTUS43 KJKL 210243 AAA
TAFJKL
TAF AMD
KJKL 210243Z 2103/2124 VRB05KT P6SM FEW070 FEW250 WS020/20040KT
     FM211400 22009G15KT P6SM VCSH BKN040
     FM211900 23009G15KT P6SM -SHRA OVC020
     FM212100 28007KT P6SM -SHRA OVC015=

USA.gov is the U.S. government's official web portal to all federal, state and local government web resources and services.